Time,TemperatureF,DewpointF,PressureIn,WindDirection,WindDirectionDegrees,WindSpeedMPH,WindSpeedGustMPH,Humidity,HourlyPrecipIn,Conditions,Clouds,dailyrainin,SoftwareType,DateUTC
2013-01-25 00:00:00,39.1,37.4,24.25,North,0,0.0,-999.0,94,0.00,,,0.73,,2013-01-25 08:00:00,
2013-01-25 01:00:00,39.1,37.4,24.25,North,0,0.0,-999.0,94,0.00,,,0.73,,2013-01-25 09:00:00,
2013-01-25 02:00:00,38.7,37.1,24.24,North,0,0.0,-999.0,94,0.00,,,0.73,,2013-01-25 10:00:00,
2013-01-25 03:00:00,39.2,37.6,24.23,North,0,0.0,-999.0,94,0.00,,,0.69,,2013-01-25 11:00:00,
2013-01-25 04:00:00,39.2,37.6,24.22,North,0,0.0,-999.0,94,0.00,,,0.64,,2013-01-25 12:00:00,
2013-01-25 05:00:00,39.2,37.6,24.21,North,0,0.0,-999.0,94,0.00,,,0.56,,2013-01-25 13:00:00,
2013-01-25 06:00:00,39.4,37.8,24.21,North,0,0.0,-999.0,94,0.00,,,0.43,,2013-01-25 14:00:00,
2013-01-25 07:07:00,39.2,37.6,24.21,North,0,0.0,-999.0,94,0.00,,,0.25,,2013-01-25 15:07:00,
2013-01-25 08:00:00,39.2,37.6,24.22,North,0,0.0,-999.0,94,0.00,,,0.21,,2013-01-25 16:00:00,
2013-01-25 09:06:00,39.4,37.8,24.22,North,0,0.0,-999.0,94,0.00,,,0.17,,2013-01-25 17:06:00,
2013-01-25 10:00:00,39.8,38.2,24.23,North,0,0.0,-999.0,94,0.00,,,0.02,,2013-01-25 18:00:00,
2013-01-25 11:06:00,40.3,38.7,24.22,North,0,0.0,-999.0,94,0.00,,,0.00,,2013-01-25 19:06:00,
2013-01-25 12:00:00,40.9,39.5,24.20,North,0,0.0,-999.0,95,0.00,,,0.00,,2013-01-25 20:00:00,
2013-01-25 13:06:00,42.1,40.8,24.20,North,0,0.0,-999.0,95,0.00,,,0.00,,2013-01-25 21:06:00,
2013-01-25 14:00:00,41.9,40.6,24.15,North,0,0.0,-999.0,95,0.00,,,0.00,,2013-01-25 22:00:00,
2013-01-25 15:06:00,42.5,41.1,24.15,North,0,0.0,-999.0,95,0.00,,,0.00,,2013-01-25 23:06:00,
2013-01-25 16:00:00,41.9,40.6,24.13,North,0,0.0,-999.0,95,0.00,,,0.00,,2013-01-26 00:00:00,
2013-01-25 17:06:00,40.9,39.5,24.13,North,0,0.0,-999.0,95,0.00,,,0.00,,2013-01-26 01:06:00,
2013-01-25 18:00:00,40.5,39.4,24.11,North,0,0.0,-999.0,96,0.00,,,0.00,,2013-01-26 02:00:00,
2013-01-25 19:00:00,40.0,38.6,24.12,North,0,0.0,-999.0,95,0.00,,,0.00,,2013-01-26 03:00:00,
2013-01-25 20:00:00,40.0,38.6,24.11,North,0,0.0,-999.0,95,0.02,,,0.02,,2013-01-26 04:00:00,
2013-01-25 21:00:00,40.0,38.6,24.11,North,0,0.0,-999.0,95,0.06,,,0.08,,2013-01-26 05:00:00,
2013-01-25 22:00:00,40.0,38.6,24.09,North,0,0.0,-999.0,95,0.04,,,0.12,,2013-01-26 06:00:00,
2013-01-25 23:00:00,39.6,38.3,24.10,North,0,0.0,-999.0,95,0.00,,,0.12,,2013-01-26 07:00:00,